• En Argentina
  • Lista de países
  • Para 7 días
  • Temperatura del agua
  • El tiempo en el mapa
  • Informadores
  • user-avatar
    Iniciar sesión

    Tiempo cada hora Buenos Aires

    Hoy, 6 Diciembre, Viernes

    Tiempo Temperatura Precipitaciones Viento Presión Humedad
    00:00 +21°C° 0 mm 6 mps 754 mmHg 30%
    01:00 +21°C° 0 mm 7 mps 754 mmHg 30%
    02:00 +21°C° 0 mm 7 mps 754 mmHg 29%
    03:00 +21°C° 0 mm 7 mps 754 mmHg 28%
    04:00 +20°C° 0 mm 7 mps 755 mmHg 28%
    05:00 +20°C° 0 mm 7 mps 755 mmHg 27%
    06:00 +21°C° 0 mm 6 mps 755 mmHg 27%
    07:00 +23°C° 0 mm 5 mps 756 mmHg 28%
    08:00 +25°C° 0 mm 4 mps 757 mmHg 28%
    09:00 +27°C° 0 mm 3 mps 757 mmHg 24%
    10:00 +28°C° 0 mm 3 mps 757 mmHg 20%
    11:00 +30°C° 0 mm 2 mps 757 mmHg 16%
    12:00 +31°C° 0 mm 3 mps 756 mmHg 15%
    13:00 +33°C° 0 mm 3 mps 756 mmHg 15%
    14:00 +34°C° 0 mm 3 mps 756 mmHg 14%
    15:00 +33°C° 0 mm 3 mps 756 mmHg 15%
    16:00 +33°C° 0 mm 3 mps 756 mmHg 16%
    17:00 +33°C° 0 mm 3 mps 756 mmHg 16%
    18:00 +30°C° 0 mm 5 mps 756 mmHg 24%
    19:00 +28°C° 0 mm 6 mps 757 mmHg 32%
    20:00 +26°C° 0 mm 8 mps 758 mmHg 40%
    21:00 +24°C° 0 mm 7 mps 758 mmHg 42%
    22:00 +23°C° 0 mm 6 mps 759 mmHg 43%
    23:00 +22°C° 0 mm 6 mps 759 mmHg 45%

    Mañana, 7 Diciembre, Sábado

    Tiempo Temperatura Precipitaciones Viento Presión Humedad
    00:00 +21°C° 0 mm 5 mps 760 mmHg 45%
    01:00 +20°C° 0 mm 4 mps 760 mmHg 46%
    02:00 +20°C° 0 mm 4 mps 760 mmHg 47%
    03:00 +19°C° 0 mm 3 mps 760 mmHg 47%
    04:00 +18°C° 0 mm 3 mps 760 mmHg 48%
    05:00 +18°C° 0 mm 2 mps 760 mmHg 49%
    06:00 +20°C° 0 mm 2 mps 760 mmHg 43%
    07:00 +23°C° 0 mm 2 mps 761 mmHg 37%
    08:00 +24°C° 0 mm 1 mps 761 mmHg 32%
    09:00 +26°C° 0 mm 1 mps 760 mmHg 26%
    10:00 +28°C° 0 mm 2 mps 760 mmHg 21%
    11:00 +30°C° 0 mm 2 mps 760 mmHg 16%
    12:00 +31°C° 0 mm 3 mps 759 mmHg 15%
    13:00 +32°C° 0 mm 4 mps 758 mmHg 15%
    14:00 +32°C° 0 mm 5 mps 758 mmHg 15%
    15:00 +32°C° 0 mm 4 mps 757 mmHg 15%
    16:00 +30°C° 0 mm 4 mps 757 mmHg 15%
    17:00 +30°C° 0 mm 4 mps 756 mmHg 15%
    18:00 +29°C° 0 mm 4 mps 756 mmHg 20%
    19:00 +27°C° 0 mm 4 mps 756 mmHg 24%
    20:00 +26°C° 0 mm 5 mps 756 mmHg 28%
    21:00 +26°C° 0 mm 5 mps 756 mmHg 31%
    22:00 +25°C° 0 mm 5 mps 756 mmHg 34%
    23:00 +25°C° 0 mm 5 mps 757 mmHg 37%

    Pasado mañana, 8 Diciembre, Domingo

    Tiempo Temperatura Precipitaciones Viento Presión Humedad
    00:00 +24°C° 0 mm 6 mps 757 mmHg 39%
    01:00 +23°C° 0 mm 6 mps 757 mmHg 41%
    02:00 +23°C° 0 mm 6 mps 757 mmHg 44%
    03:00 +22°C° 0.2 mm 7 mps 757 mmHg 47%
    04:00 +22°C° 0.2 mm 8 mps 757 mmHg 51%
    05:00 +21°C° 0.2 mm 8 mps 757 mmHg 55%
    06:00 +22°C° 0.4 mm 7 mps 757 mmHg 54%
    07:00 +25°C° 0.4 mm 5 mps 757 mmHg 53%
    08:00 +26°C° 0.4 mm 3 mps 757 mmHg 52%
    09:00 +28°C° 0 mm 4 mps 757 mmHg 46%
    10:00 +29°C° 0 mm 5 mps 756 mmHg 39%
    11:00 +32°C° 0 mm 5 mps 756 mmHg 33%
    12:00 +34°C° 0 mm 5 mps 755 mmHg 30%
    13:00 +35°C° 0 mm 4 mps 754 mmHg 27%
    14:00 +37°C° 0 mm 4 mps 753 mmHg 23%
    15:00 +35°C° 0.6 mm 3 mps 753 mmHg 26%
    16:00 +34°C° 0.6 mm 3 mps 753 mmHg 29%
    17:00 +33°C° 0.6 mm 3 mps 753 mmHg 32%
    18:00 +30°C° 0 mm 4 mps 753 mmHg 38%
    19:00 +29°C° 0 mm 5 mps 754 mmHg 44%
    20:00 +27°C° 0 mm 6 mps 754 mmHg 50%
    21:00 +27°C° 0 mm 6 mps 755 mmHg 54%
    22:00 +26°C° 0 mm 5 mps 755 mmHg 59%
    23:00 +25°C° 0 mm 4 mps 755 mmHg 63%

    9 Diciembre, Lunes

    Tiempo Temperatura Precipitaciones Viento Presión Humedad
    00:00 +25°C° 0 mm 3 mps 755 mmHg 66%
    01:00 +24°C° 0 mm 3 mps 755 mmHg 69%
    02:00 +24°C° 0 mm 2 mps 755 mmHg 72%
    03:00 +23°C° 0 mm 2 mps 756 mmHg 73%
    04:00 +23°C° 0 mm 2 mps 756 mmHg 75%
    05:00 +23°C° 0 mm 2 mps 756 mmHg 76%
    06:00 +24°C° 0 mm 2 mps 756 mmHg 68%
    07:00 +26°C° 0 mm 3 mps 756 mmHg 60%
    08:00 +27°C° 0 mm 3 mps 756 mmHg 51%
    09:00 +30°C° 0 mm 3 mps 755 mmHg 43%
    10:00 +34°C° 0 mm 2 mps 755 mmHg 35%
    11:00 +36°C° 0 mm 2 mps 755 mmHg 27%
    12:00 +38°C° 0 mm 2 mps 754 mmHg 23%
    13:00 +39°C° 0 mm 2 mps 753 mmHg 19%
    14:00 +41°C° 0 mm 2 mps 753 mmHg 15%
    15:00 +40°C° 0 mm 2 mps 752 mmHg 16%
    16:00 +40°C° 0 mm 3 mps 752 mmHg 16%
    17:00 +39°C° 0 mm 3 mps 752 mmHg 16%
    18:00 +39°C° 0 mm 5 mps 752 mmHg 20%
    19:00 +36°C° 0 mm 6 mps 752 mmHg 24%
    20:00 +34°C° 0 mm 7 mps 752 mmHg 28%
    21:00 +33°C° 0 mm 7 mps 753 mmHg 32%
    22:00 +32°C° 0 mm 6 mps 753 mmHg 36%
    23:00 +30°C° 0 mm 6 mps 753 mmHg 40%

    10 Diciembre, Martes

    Tiempo Temperatura Precipitaciones Viento Presión Humedad
    00:00 +30°C° 0 mm 6 mps 753 mmHg 38%
    01:00 +30°C° 0 mm 6 mps 753 mmHg 37%
    02:00 +30°C° 0 mm 6 mps 753 mmHg 35%
    03:00 +30°C° 0 mm 6 mps 753 mmHg 35%
    04:00 +30°C° 0 mm 6 mps 753 mmHg 34%
    05:00 +29°C° 0 mm 6 mps 753 mmHg 34%
    06:00 +32°C° 0 mm 6 mps 754 mmHg 32%
    07:00 +33°C° 0 mm 7 mps 754 mmHg 30%
    08:00 +34°C° 0 mm 7 mps 754 mmHg 28%
    09:00 +36°C° 0 mm 6 mps 754 mmHg 24%
    10:00 +40°C° 0 mm 6 mps 754 mmHg 20%
    11:00 +42°C° 0 mm 6 mps 754 mmHg 16%
    12:00 +42°C° 0 mm 5 mps 753 mmHg 14%
    13:00 +42°C° 0 mm 4 mps 752 mmHg 13%
    14:00 +43°C° 0 mm 3 mps 752 mmHg 12%
    15:00 +40°C° 0 mm 4 mps 752 mmHg 18%
    16:00 +36°C° 0 mm 5 mps 753 mmHg 24%
    17:00 +34°C° 0 mm 6 mps 753 mmHg 31%
    18:00 +33°C° 0.1 mm 7 mps 754 mmHg 29%
    19:00 +30°C° 0.1 mm 7 mps 755 mmHg 28%
    20:00 +29°C° 0.1 mm 8 mps 756 mmHg 27%
    21:00 +28°C° 0 mm 8 mps 756 mmHg 33%
    22:00 +27°C° 0 mm 8 mps 756 mmHg 39%
    23:00 +26°C° 0 mm 7 mps 756 mmHg 45%

    11 Diciembre, Miércoles

    Tiempo Temperatura Precipitaciones Viento Presión Humedad
    00:00 +24°C° 0 mm 7 mps 756 mmHg 52%
    01:00 +24°C° 0 mm 6 mps 755 mmHg 59%
    02:00 +23°C° 0 mm 5 mps 755 mmHg 66%
    03:00 +23°C° 0 mm 5 mps 755 mmHg 69%
    04:00 +23°C° 0 mm 4 mps 755 mmHg 73%
    05:00 +23°C° 0 mm 4 mps 755 mmHg 76%
    06:00 +25°C° 0.1 mm 3 mps 755 mmHg 68%
    07:00 +27°C° 0.1 mm 2 mps 755 mmHg 59%
    08:00 +29°C° 0.1 mm 2 mps 755 mmHg 51%
    09:00 +30°C° 0.1 mm 2 mps 755 mmHg 46%
    10:00 +32°C° 0.1 mm 2 mps 754 mmHg 41%
    11:00 +35°C° 0.1 mm 2 mps 754 mmHg 36%
    12:00 +36°C° 0 mm 3 mps 752 mmHg 33%
    13:00 +37°C° 0 mm 3 mps 751 mmHg 30%
    14:00 +39°C° 0 mm 3 mps 750 mmHg 28%
    15:00 +38°C° 0 mm 4 mps 749 mmHg 29%
    16:00 +38°C° 0 mm 4 mps 748 mmHg 30%
    17:00 +37°C° 0 mm 5 mps 748 mmHg 31%
    18:00 +34°C° 2.2 mm 5 mps 748 mmHg 39%
    19:00 +30°C° 2.2 mm 4 mps 749 mmHg 47%
    20:00 +28°C° 2.2 mm 4 mps 750 mmHg 55%
    21:00 +27°C° 0 mm 4 mps 750 mmHg 61%
    22:00 +26°C° 0 mm 3 mps 750 mmHg 68%
    23:00 +26°C° 0 mm 3 mps 750 mmHg 75%
    Mostrar más